CDT,Max TemperatureF,Mean TemperatureF,Min TemperatureF,Max Dew PointF,MeanDew PointF,Min DewpointF,Max Humidity, Mean Humidity, Min Humidity, Max Sea Level PressureIn, Mean Sea Level PressureIn, Min Sea Level PressureIn, Max VisibilityMiles, Mean VisibilityMiles, Min VisibilityMiles, Max Wind SpeedMPH, Mean Wind SpeedMPH, Max Gust SpeedMPH,PrecipitationIn, CloudCover, Events, WindDirDegrees
2012-9-1,99,88,76,66,60,54,69,46,22,30.00,29.93,29.88,10,10,10,15,9,18,0.00,1,,171
2012-9-2,100,88,75,67,63,60,74,52,29,29.97,29.90,29.83,10,10,10,20,10,24,0.00,0,,176
2012-9-3,101,89,77,67,61,56,67,45,23,29.93,29.86,29.79,10,10,10,20,10,28,0.00,0,,174
2012-9-4,102,91,79,69,59,51,67,45,22,29.89,29.82,29.74,10,10,10,21,11,28,0.00,0,,173
2012-9-5,103,92,80,65,58,53,55,38,21,29.84,29.79,29.72,10,10,10,18,10,23,0.00,0,,175
2012-9-6,103,88,72,68,61,54,90,55,20,29.91,29.85,29.78,10,10,10,23,8,30,0.00,0,,145
2012-9-7,105,89,73,63,55,48,50,33,16,29.96,29.81,29.72,10,10,4,35,11,45,0.00,1,,203
2012-9-8,82,73,64,56,46,38,68,45,21,30.17,30.09,29.99,10,10,10,26,11,37,T,2,,14
2012-9-9,88,74,60,45,40,36,51,34,16,30.17,30.11,30.04,10,10,10,9,3,13,0.00,0,,178
2012-9-10,93,75,57,40,36,32,44,29,14,30.10,30.03,29.95,10,10,10,15,8,20,0.00,0,,148
2012-9-11,93,81,68,56,46,39,53,36,19,30.01,29.95,29.88,10,10,10,21,14,26,0.00,0,,159
2012-9-12,95,82,69,65,56,48,73,51,28,29.97,29.92,29.86,10,10,10,22,12,31,0.00,0,,157
2012-9-13,82,70,58,66,62,58,100,73,46,30.29,30.12,29.91,10,7,1,30,13,38,1.11,7,Rain-Thunderstorm,355
2012-9-14,64,61,57,58,56,55,100,89,78,30.31,30.25,30.22,10,10,5,21,11,24,T,8,,347
2012-9-15,68,63,58,61,58,55,93,83,73,30.27,30.20,30.12,10,10,7,10,5,13,0.09,8,Rain,295
2012-9-16,77,69,60,62,60,58,100,77,54,30.11,30.02,29.92,10,10,10,12,5,15,0.00,2,,188
2012-9-17,86,75,63,63,60,53,100,69,37,29.94,29.86,29.77,10,10,10,14,6,17,0.00,2,,185
2012-9-18,77,68,59,62,59,55,97,76,54,30.19,30.07,29.90,10,10,5,29,7,39,0.20,5,Rain-Thunderstorm,7
2012-9-19,86,73,59,58,53,46,93,62,31,30.11,30.05,29.97,10,10,10,17,8,22,0.00,0,,173
2012-9-20,92,78,64,59,53,45,73,47,20,30.01,29.96,29.88,10,10,10,23,11,29,0.00,0,,184
2012-9-21,93,79,65,55,47,40,52,35,17,29.97,29.91,29.86,10,10,10,22,10,28,0.00,0,,181
2012-9-22,93,78,62,51,46,41,52,35,18,30.08,30.02,29.94,10,10,10,13,7,17,0.00,0,,164
2012-9-23,92,78,64,58,53,49,67,45,23,30.15,30.08,30.04,10,10,10,14,8,20,0.00,0,,180
2012-9-24,93,81,68,63,54,44,68,44,20,30.07,29.98,29.88,10,10,10,26,14,33,0.00,0,,189
2012-9-25,94,82,70,64,59,52,73,50,27,29.89,29.84,29.76,10,10,10,26,18,35,0.00,0,Thunderstorm,176
2012-9-26,91,81,70,66,62,58,84,60,36,30.07,29.89,29.82,10,10,10,21,13,28,0.00,1,,166
2012-9-27,87,77,67,67,64,58,93,70,46,30.13,30.03,29.96,10,8,1,28,9,31,0.86,4,Rain-Thunderstorm,138
2012-9-28,72,69,66,70,66,64,100,92,84,30.13,30.04,29.97,10,6,0,17,5,26,2.41,7,Fog-Rain,88
2012-9-29,71,67,63,66,64,61,100,97,93,30.00,29.95,29.88,10,6,2,22,11,29,3.81,8,Rain,26
2012-9-30,78,70,62,64,62,59,100,77,54,30.00,29.94,29.83,10,9,6,18,9,24,0.00,6,,358